This demonstration page uses our WeatherBlox Daily Observations layout. Learn more.

Left ArrowRight Arrow

40.92945, -100.16068

Hourly Observations for December 24, 2020

Temp ( °F °C ) Dew Point ( °F °C ) Humidity (%) Winds ( mph kmh ) Pressure ( in mb ) Visibility ( mi km ) Precip ( " mm )
12:15 am 00:15 Clear 17 -8.4 8 -13.5 67 67 WNW 18 30 30.29 1026 10 16.0934 0 0
12:35 am 00:35 Clear 17 -8.3 8 -13.4 67 67 WNW 18 30 30.28 1025 10 16.0934 0 0
12:55 am 00:55 Clear 18 -7.8 8 -13.5 64 64 NW 21 33 30.27 1025 10 16.0934 0 0
1:15 am 01:15 Clear 19 -7.3 8 -13.6 61 61 NW 21 33 30.26 1025 10 16.0934 0 0
1:35 am 01:35 Clear 19 -7.1 7 -13.7 60 60 NW 21 33 30.25 1024 10 16.0934 0 0
1:55 am 01:55 Clear 19 -7 8 -13.6 60 60 NW 21 33 30.25 1024 10 16.0934 0 0
2:15 am 02:15 Clear 19 -7.2 7 -13.7 60 60 NW 18 30 30.25 1024 10 16.0934 0 0
2:35 am 02:35 Clear 18 -7.7 7 -13.7 62 62 WNW 17 28 30.26 1025 10 16.0934 0 0
2:55 am 02:55 Clear 18 -8 7 -13.7 64 64 WNW 15 24 30.26 1025 10 16.0934 0 0
3:15 am 03:15 Clear 17 -8.3 8 -13.6 66 66 WNW 16 26 30.25 1024 10 16.0934 0 0
3:35 am 03:35 Clear 16 -8.7 8 -13.5 69 69 WNW 14 22 30.26 1025 10 16.0934 0 0
3:55 am 03:55 Clear 17 -8.5 8 -13.1 70 70 WNW 10 17 30.24 1024 10 16.0934 0 0
4:15 am 04:15 Clear 16 -8.8 9 -13 72 72 WNW 6 9 30.24 1024 10 16.0934 0 0
4:35 am 04:35 Clear 16 -9 9 -12.7 75 75 NW 5 7 30.23 1024 10 16.0934 0 0
4:55 am 04:55 Clear 16 -9.1 9 -12.6 76 76 WNW 6 9 30.23 1024 10 16.0934 0 0
5:15 am 05:15 Clear 15 -9.3 9 -12.9 75 75 NW 6 9 30.23 1024 10 16.0934 0 0
5:35 am 05:35 Mostly Cloudy 15 -9.5 9 -12.9 77 77 NW 6 9 30.24 1024 10 16.0934 0 0
5:55 am 05:55 Cloudy 16 -9 9 -12.6 75 75 NW 8 13 30.23 1024 10 16.0934 0 0
6:15 am 06:15 Cloudy 17 -8.5 10 -12.2 75 75 NW 7 11 30.22 1024 10 16.0934 0 0
6:35 am 06:35 Mostly Cloudy 17 -8.5 11 -11.9 77 77 WNW 6 9 30.22 1024 10 16.0934 0 0
6:55 am 06:55 Partly Cloudy 17 -8.1 11 -11.5 77 77 WNW 8 13 30.22 1023 10 16.0934 0 0
7:15 am 07:15 Partly Cloudy 19 -7.5 12 -11.2 75 75 WNW 7 11 30.21 1023 10 16.0934 0 0
7:35 am 07:35 Partly Cloudy 19 -7.1 12 -11 74 74 NW 8 13 30.21 1023 10 16.0934 0 0
7:55 am 07:55 Mostly Cloudy 20 -6.8 13 -10.6 75 75 NW 8 13 30.21 1023 10 16.0934 0 0
8:15 am 08:15 Cloudy 20 -6.5 14 -10.2 75 75 WNW 9 15 30.21 1023 10 16.0934 0 0
8:35 am 08:35 Cloudy 22 -5.7 14 -9.8 73 73 WNW 9 15 30.22 1023 10 16.0934 0 0
8:55 am 08:55 Cloudy 23 -4.9 15 -9.5 70 70 NW 10 17 30.22 1023 10 16.0934 0 0
9:15 am 09:15 Cloudy 24 -4.3 16 -8.8 71 71 NW 9 15 30.21 1023 10 16.0934 0 0
9:35 am 09:35 Cloudy 25 -3.9 17 -8.5 71 71 NW 9 15 30.22 1023 10 16.0934 0 0
9:55 am 09:55 Cloudy 26 -3.5 17 -8.1 71 71 NW 7 11 30.21 1023 10 16.0934 0 0
10:15 am 10:15 Cloudy 27 -3 18 -7.6 71 71 NW 8 13 30.22 1023 10 16.0934 0 0
10:35 am 10:35 Cloudy 28 -2.2 19 -7.5 67 67 NNW 10 17 30.22 1023 10 16.0934 0 0
10:55 am 10:55 Cloudy 29 -1.7 19 -7.5 65 65 NNW 8 13 30.21 1023 10 16.0934 0 0
11:15 am 11:15 Cloudy 30 -1 19 -7 64 64 NNW 14 22 30.22 1023 10 16.0934 0 0
11:35 am 11:35 Cloudy 31 -0.5 19 -7.4 60 60 NNW 15 24 30.21 1023 10 16.0934 0 0
11:55 am 11:55 Cloudy 31 -0.5 19 -7.3 60 60 NNW 17 28 30.21 1023 10 16.0934 0 0
12:15 pm 12:15 Cloudy 31 -0.3 19 -7.2 60 60 NNW 17 28 30.21 1023 10 16.0934 0 0
12:35 pm 12:35 Cloudy 32 0 21 -6.3 63 63 NNW 18 30 30.21 1023 10 16.0934 0 0
12:55 pm 12:55 Cloudy 32 0 20 -6.7 61 61 NNW 17 28 30.2 1023 10 16.0934 0 0
1:15 pm 13:15 Cloudy 32 0.1 20 -6.5 62 62 NNW 17 28 30.2 1023 10 16.0934 0 0
1:35 pm 13:35 Cloudy 32 0.2 21 -6.1 63 63 NW 17 28 30.2 1023 10 16.0934 0 0
1:55 pm 13:55 Cloudy 33 0.3 21 -6 63 63 NW 17 28 30.19 1022 10 16.0934 0 0
2:15 pm 14:15 Cloudy 33 0.5 22 -5.8 63 63 NNW 15 24 30.18 1022 10 16.0934 0 0
2:35 pm 14:35 Cloudy 33 0.5 22 -5.7 64 64 NNW 14 22 30.18 1022 10 16.0934 0 0
2:55 pm 14:55 Cloudy 33 0.5 23 -5.2 66 66 NNW 13 20 30.19 1022 10 16.0934 0 0
3:15 pm 15:15 Cloudy 33 0.6 23 -4.8 67 67 NW 13 20 30.19 1022 10 16.0934 0 0
3:35 pm 15:35 Cloudy 33 0.7 24 -4.6 68 68 NNW 13 20 30.19 1022 10 16.0934 0 0
3:55 pm 15:55 Cloudy 34 1 24 -4.7 66 66 NNW 16 26 30.19 1022 10 16.0934 0 0
4:15 pm 16:15 Cloudy 33 0.8 25 -4 71 71 NNW 14 22 30.18 1022 10 16.0934 0 0
4:35 pm 16:35 Cloudy 33 0.8 25 -3.8 72 72 NNW 14 22 30.18 1022 10 16.0934 0 0
4:55 pm 16:55 Cloudy 33 0.6 26 -3.2 76 76 NNW 7 11 30.18 1022 10 16.0934 0 0
5:15 pm 17:15 Cloudy 33 0.5 27 -3 78 78 NW 7 11 30.18 1022 10 16.0934 0 0
5:35 pm 17:35 Cloudy 33 0.4 27 -2.9 79 79 NNW 5 7 30.18 1022 10 16.0934 0 0
5:55 pm 17:55 Cloudy 32 0 27 -2.7 82 82 NW 5 7 30.19 1022 10 16.0934 0 0
6:15 pm 18:15 Cloudy 32 0 27 -2.7 82 82 NNW 6 9 30.19 1022 10 16.0934 0 0
6:35 pm 18:35 Cloudy 32 0 28 -2.5 83 83 N 6 9 30.19 1022 10 16.0934 0 0
6:55 pm 18:55 Cloudy 32 0.1 28 -2.5 83 83 NNW 5 7 30.2 1023 10 16.0934 0 0
7:15 pm 19:15 Cloudy 32 0.1 28 -2.3 84 84 WNW 5 7 30.21 1023 10 16.0934 0 0
7:35 pm 19:35 Cloudy 32 0.1 28 -2.2 85 85 NW 5 7 30.21 1023 10 16.0934 0 0
7:55 pm 19:55 Cloudy 32 0.2 28 -2.4 83 83 NNW 3 6 30.21 1023 10 16.0934 0 0
8:15 pm 20:15 Cloudy 32 0 28 -2 87 87 ENE 3 6 30.2 1023 10 16.0934 0 0
8:35 pm 20:35 Partly Cloudy 31 -0.6 28 -2.5 87 87 Calm 30.19 1022 10 16.0934 0 0
8:55 pm 20:55 Clear 28 -2.1 26 -3.4 91 91 SW 3 6 30.23 1024 10 16.0934 0 0
9:15 pm 21:15 Clear 28 -2.5 25 -4 90 90 WSW 5 7 30.24 1024 10 16.0934 0 0
9:35 pm 21:35 Clear 27 -2.6 25 -3.9 91 91 SW 3 6 30.24 1024 10 16.0934 0 0
9:55 pm 21:55 Partly Cloudy 26 -3.2 24 -4.2 93 93 W 3 6 30.25 1024 10 16.0934 0 0
10:15 pm 22:15 Mostly Cloudy 25 -4 23 -5 93 93 WSW 5 7 30.27 1025 10 16.0934 0 0
10:35 pm 22:35 Partly Cloudy 26 -3.1 24 -4.5 90 90 Calm 30.25 1024 10 16.0934 0 0
10:55 pm 22:55 Clear 25 -3.9 23 -4.9 93 93 Calm 30.27 1025 10 16.0934 0 0
11:15 pm 23:15 Clear 25 -4 23 -5.1 92 92 Calm 30.27 1025 10 16.0934 0 0
11:35 pm 23:35 Clear 23 -5 21 -5.9 93 93 Calm 30.27 1025 10 16.0934 0 0
11:55 pm 23:55 Clear 23 -5.1 21 -6 93 93 Calm 30.28 1025 10 16.0934 0 0

Powered by AerisWeather